Wind_Speed
26 18 22 30 30 29 27 26 31 25 21 27 25 24 22 23 18 16 20 22 20 21 19 25 25 24 26 23 26 25 26 20 27 19 16 15 11 13 15 9 8 10 9 10
19 23 28 26 27 29 30 29 28 24 25 24 25 26 22 22 23 16 19 19 20 20 16 14 18 22 25 23 26 19 22 21 21 25 16 17 15 15 12 10 9 12 14 12
25 24 27 27 26 28 29 28 27 27 24 26 24 25 26 24 19 21 17 16 18 20 20 17 16 19 26 27 30 18 15 19 23 28 21 17 15 14 13 14 13 12 9 8
22 27 26 28 28 28 27 30 29 26 24 16 25 16 18 19 21 22 21 19 17 18 20 17 17 14 17 28 36 29 37 31 26 26 23 20 16 14 15 16 14 9 7 5
12 15 22 24 25 28 27 26 27 29 23 21 19 14 17 20 23 25 23 19 18 18 18 17 20 17 19 19 23 40 31 30 25 27 20 23 18 18 18 19 14 11 7 7
24 24 17 17 19 22 26 26 22 25 18 16 21 18 18 17 25 21 21 22 18 18 16 16 22 26 21 22 24 27 26 24 25 25 26 22 19 17 22 23 15 13 8 6
16 25 21 19 20 19 17 22 13 13 15 14 22 20 14 23 25 24 23 23 22 17 18 15 17 19 21 22 29 28 27 25 26 26 21 19 13 14 16 16 17 13 10 7
4 5 17 19 26 21 22 22 16 12 15 19 24 25 18 21 10 21 23 22 20 19 15 18 19 19 22 24 34 29 24 23 23 21 15 12 13 13 14 11 16 15 12 7
5 9 15 17 20 26 26 21 23 18 19 17 20 21 18 17 5 7 18 22 22 19 17 16 15 17 23 31 28 26 23 20 16 16 14 12 9 15 18 15 15 13 9 8
5 6 7 6 8 25 24 21 19 14 17 19 20 24 16 22 14 10 15 14 17 17 16 14 14 22 29 28 27 26 26 25 24 21 21 23 23 22 18 18 18 15 12 11
13 4 3 9 6 18 19 14 20 18 9 9 15 17 22 23 19 17 17 16 15 18 20 21 20 25 31 28 26 26 27 28 20 21 23 22 23 21 20 19 16 14 12 9
4 4 5 10 17 16 24 17 24 13 19 12 10 7 21 19 22 24 18 15 16 18 18 18 18 23 26 27 27 27 27 26 24 24 23 22 20 19 18 17 14 13 11 9
6 3 4 2 5 10 11 25 28 18 15 18 12 4 13 22 22 18 21 17 15 16 18 18 19 19 24 27 28 29 27 24 23 21 20 18 17 17 16 14 12 12 10 9
6 4 8 7 3 13 19 12 25 20 12 14 8 3 9 10 20 19 18 17 16 15 17 18 19 20 25 28 27 25 24 23 21 20 18 17 16 15 14 13 12 10 9 8
0 5 14 15 15 22 11 12 18 23 17 2 6 15 11 11 16 19 19 21 21 19 18 19 20 18 23 24 24 25 23 22 20 20 19 18 17 15 14 13 12 11 11 10
1 4 6 8 16 13 18 21 21 19 14 5 5 17 16 14 16 18 18 20 21 19 19 20 20 20 19 23 23 22 20 20 19 19 18 16 15 15 15 14 14 14 14 14
3 4 4 2 15 16 7 18 19 21 20 3 2 11 20 15 16 18 21 20 22 20 19 19 18 17 21 21 21 21 20 20 20 19 17 16 15 16 16 15 15 14 13 12
4 3 3 2 9 9 12 9 20 16 17 17 20 16 18 18 17 16 16 20 20 20 19 17 17 21 22 21 21 21 21 20 20 19 18 16 15 15 15 16 16 16 16 15
11 2 3 1 2 3 6 14 15 18 13 17 20 20 24 24 26 17 16 18 19 19 17 21 23 21 22 21 21 21 21 21 20 19 18 16 16 17 16 17 17 16 14 15
11 7 4 5 4 4 17 25 27 15 7 18 20 20 22 22 18 11 15 19 19 23 24 22 22 22 22 21 21 21 21 20 20 18 17 17 16 17 16 16 16 16 15 14
5 3 3 4 2 4 11 21 23 2 7 11 23 18 15 15 11 17 18 19 24 23 24 24 23 22 22 21 21 21 20 20 18 17 16 16 18 18 17 15 15 16 15 15
4 6 4 4 3 3 16 6 3 12 20 15 15 22 23 19 18 18 19 18 17 20 23 22 22 23 21 20 21 19 19 18 16 16 16 18 19 17 17 18 17 19 17 16
4 7 4 5 2 4 12 21 19 23 20 17 19 20 23 20 19 18 16 15 16 19 21 23 23 24 23 20 18 18 17 15 14 15 17 16 18 19 19 18 18 16 15 16
8 16 5 6 10 16 17 20 21 23 23 22 21 22 20 18 17 15 14 13 13 19 21 21 22 22 20 19 18 18 16 14 14 16 15 15 16 17 18 16 15 16 17 15
4 11 10 5 10 14 17 21 22 24 26 23 21 20 20 18 14 13 13 13 18 21 22 21 20 20 19 18 19 17 15 14 14 15 14 12 13 13 14 16 15 14 17 15
7 5 4 3 6 14 14 19 24 26 26 25 28 21 15 16 17 11 11 19 20 21 21 20 19 19 18 17 17 19 16 15 13 13 12 8 12 14 13 12 11 16 15 18
Wind_Direction
226 229 230 221 224 231 234 233 223 237 221 221 226 225 227 232 230 217 211 213 211 233 211 208 223 213 185 189 155 152 158 173 165 167 175 178 199 194 213 169 169 170 183 207
238 210 230 238 232 233 239 244 245 231 219 235 220 230 217 221 235 223 207 210 217 222 222 213 202 215 186 144 142 162 165 175 164 178 171 173 191 199 204 196 201 202 211 215
245 220 219 231 238 238 230 234 237 243 227 222 231 222 210 214 232 224 215 228 211 212 216 212 200 205 166 140 159 172 194 185 172 176 175 180 186 183 190 197 197 200 202 202
254 244 230 215 224 235 232 220 234 237 244 237 209 223 201 200 225 235 221 206 216 203 207 207 183 185 158 147 161 180 197 203 168 170 181 177 167 168 189 183 175 177 197 226
244 251 248 255 235 220 238 231 215 239 240 249 203 214 226 193 229 219 212 198 208 214 196 203 169 164 166 157 158 171 173 163 172 177 174 172 178 188 187 177 163 164 183 210
262 261 240 286 252 245 218 236 238 218 234 242 239 199 215 231 211 215 211 193 200 196 205 202 157 161 173 165 153 153 154 153 165 168 172 182 199 186 151 148 152 155 171 196
280 264 250 222 238 260 250 206 207 217 211 221 234 231 215 207 235 207 207 199 187 200 191 194 174 165 169 171 145 138 139 139 155 170 177 196 185 122 127 130 143 151 133 139
232 237 218 220 238 207 234 219 211 186 201 202 223 219 213 231 302 200 193 186 180 193 187 186 196 162 165 176 129 132 137 138 159 167 169 159 129 123 105 104 122 124 131 117
290 217 334 261 253 233 199 232 203 209 203 209 213 223 225 242 84 51 179 170 172 179 190 187 187 167 126 112 120 130 132 130 142 160 155 148 134 121 112 104 105 104 105 113
317 293 187 301 295 256 237 209 194 224 221 201 204 206 210 220 167 144 65 125 163 170 184 173 116 100 105 110 117 115 113 108 114 109 100 94 93 95 96 95 91 89 79 78
331 305 112 3 252 233 222 232 200 213 196 229 196 202 207 204 162 117 86 75 63 72 86 92 97 101 103 109 114 114 109 113 115 110 103 97 90 90 90 88 87 84 81 69
352 291 259 225 237 264 235 182 249 204 201 259 262 150 353 204 125 111 105 97 93 92 99 104 107 110 113 111 114 107 102 102 103 97 92 89 92 92 88 83 79 76 67 51
355 290 292 196 327 282 264 165 220 215 214 221 230 98 21 79 90 102 109 103 97 101 102 108 110 106 108 105 102 100 104 105 103 101 100 97 94 91 87 83 76 66 55 39
210 252 257 293 331 276 197 234 209 226 217 242 248 145 98 72 113 112 104 99 99 107 106 104 104 100 98 98 101 108 108 108 110 110 104 98 93 89 83 76 67 57 47 36
7 268 285 266 266 266 172 186 230 218 223 204 198 158 130 114 121 115 110 109 109 107 103 101 99 96 96 103 105 104 106 105 107 102 96 92 84 77 74 69 61 51 41 30
284 272 291 256 222 214 169 204 222 228 89 294 151 119 119 112 116 105 102 105 107 106 102 98 93 93 96 94 97 102 107 105 102 97 93 87 82 74 65 59 54 47 39 32
248 294 282 168 174 188 170 197 210 209 148 124 79 120 120 117 109 107 106 104 105 106 100 99 98 95 97 97 99 97 96 96 91 87 83 78 73 67 60 56 50 43 37 27
256 233 270 51 134 159 205 221 99 69 79 102 111 126 117 108 96 94 100 106 102 100 97 94 92 95 100 103 101 100 95 91 85 79 76 70 68 64 58 55 48 37 34 24
194 291 311 109 42 98 200 103 100 111 92 108 105 105 102 102 91 76 93 95 99 99 98 95 99 96 98 96 94 91 86 83 79 73 68 66 62 60 55 49 43 32 26 30
190 225 306 170 177 118 102 112 118 115 74 123 110 116 117 112 95 103 98 96 95 94 98 98 94 90 86 84 87 85 81 79 74 71 67 63 66 61 54 45 38 30 24 27
342 357 342 5 74 86 78 144 159 136 155 143 128 121 105 94 93 112 103 97 100 101 100 97 94 88 83 82 83 79 78 73 73 72 70 62 60 63 50 44 39 31 32 31
328 321 30 21 52 29 342 314 54 121 127 123 105 110 107 104 98 95 101 103 102 105 98 94 89 83 82 82 80 78 77 75 74 72 70 63 60 56 47 44 36 35 28 32
15 343 347 12 9 303 39 91 119 126 111 113 112 114 113 112 111 115 113 111 102 105 104 95 89 84 76 76 82 79 68 77 77 75 72 69 65 57 49 46 36 32 29 32
336 12 24 11 333 74 82 92 91 106 109 112 114 112 107 111 119 114 115 113 108 101 95 94 89 87 84 82 81 81 79 77 76 72 67 65 70 66 53 49 46 42 33 25
339 309 330 359 2 54 55 95 106 104 107 108 102 107 115 120 113 114 113 111 102 93 92 92 90 88 87 85 82 77 75 75 73 68 63 65 70 85 72 62 54 52 44 39
335 331 359 331 334 79 68 90 105 110 111 114 113 105 98 101 106 105 97 96 99 98 98 94 93 90 84 79 80 86 74 72 72 68 59 46 76 74 72 69 63 44 47 48
Height
683 694 687 671 667 665 660 660 663 654 641 654 653 662 659 654 652 659 658 664 668 669 666 671 674 677 677 677 684 696 706 718 721 725 731 740 745 749 751 754 758 762 765 769
675 682 676 670 669 671 667 666 656 644 639 646 647 650 648 649 649 650 654 657 661 666 663 665 669 674 674 684 691 701 706 715 721 729 735 741 746 751 754 754 757 761 764 768
671 663 663 672 672 667 662 664 658 653 633 631 640 647 645 643 643 645 645 648 650 657 661 662 665 669 673 683 695 703 715 722 725 729 737 742 745 750 754 755 756 759 763 766
672 652 649 656 664 661 662 648 652 649 646 651 628 662 643 646 649 644 642 644 646 649 654 656 660 665 672 682 688 691 708 726 725 727 735 740 742 746 751 752 754 758 761 764
680 662 657 657 646 647 651 637 648 651 647 643 634 658 643 639 650 639 634 638 641 644 647 651 655 662 671 683 690 703 715 717 721 727 734 739 741 745 747 749 752 755 760 764
662 650 646 653 639 635 637 645 643 645 648 664 642 646 651 639 630 629 627 629 636 640 643 648 654 663 669 682 692 703 710 715 721 729 734 738 741 743 743 745 749 754 758 762
671 654 644 653 652 645 641 645 660 674 665 669 642 639 632 621 614 613 618 623 629 636 642 647 652 662 668 676 689 705 713 720 726 732 735 738 740 740 740 743 749 754 758 762
681 648 638 640 640 642 647 636 645 681 676 660 634 635 621 603 598 591 599 611 622 634 637 644 650 658 666 674 686 702 713 720 727 731 735 736 736 739 742 746 751 755 759 763
663 658 649 638 629 632 632 644 624 643 638 642 634 623 613 600 606 599 597 607 621 630 636 641 647 654 666 681 694 703 711 718 726 731 733 736 739 742 746 751 755 758 762 765
676 666 650 650 652 622 623 617 642 639 656 651 631 634 633 616 616 615 623 615 621 627 634 640 652 664 678 690 701 709 714 720 728 735 737 740 742 747 751 754 757 761 764 766
675 671 667 660 649 644 624 631 624 630 641 652 637 625 606 604 605 623 646 649 646 643 651 659 670 679 687 700 708 715 719 726 736 742 744 747 750 754 757 759 762 763 766 769
688 686 668 650 633 623 610 637 637 633 646 637 624 622 615 586 600 634 658 662 661 661 666 672 679 687 695 704 714 718 725 735 742 747 750 753 758 760 762 763 766 766 769 770
694 682 660 637 637 628 625 623 630 619 631 638 637 649 647 630 642 653 659 667 672 675 678 683 688 695 702 710 717 725 735 743 748 753 758 761 763 764 765 767 767 768 771 772
695 686 676 651 654 637 635 628 615 625 642 640 648 657 665 661 661 665 669 673 678 684 687 690 695 700 708 717 727 736 742 748 754 759 762 765 766 768 769 770 771 772 774 774
695 681 662 649 652 640 629 644 630 627 630 652 639 650 665 669 672 670 675 679 685 692 697 699 702 708 718 730 736 742 749 755 759 762 765 767 769 771 772 773 774 775 776 776
699 678 671 653 635 627 633 632 627 621 652 659 642 659 669 675 677 680 684 686 693 701 706 709 713 722 733 739 745 752 757 760 763 765 768 770 772 774 774 775 777 777 778 778
693 680 662 619 610 613 628 618 633 629 639 641 661 667 676 682 687 689 692 699 703 710 715 721 727 733 741 749 753 757 761 764 766 768 770 773 775 777 778 779 780 780 780 781
684 680 658 621 611 640 606 593 613 636 639 654 669 667 677 685 693 698 702 707 716 721 728 733 737 745 752 757 760 763 766 768 769 772 775 777 779 780 782 781 783 783 782 782
679 676 655 639 642 619 606 641 631 647 667 668 676 683 687 693 699 717 716 720 727 731 737 742 750 755 759 762 765 767 769 771 774 776 779 781 783 783 784 785 785 785 785 784
666 671 662 635 638 632 637 643 643 652 686 685 683 694 695 693 710 733 729 731 736 742 748 754 760 762 765 767 770 771 773 776 779 782 784 786 787 788 788 788 788 788 787 786
664 667 663 659 654 638 634 632 628 651 694 693 691 697 708 716 725 731 734 741 747 753 758 762 767 768 770 774 775 776 780 782 785 788 789 790 790 790 791 792 791 790 789 789
676 664 655 664 658 656 645 628 638 669 688 697 707 713 723 729 736 741 748 752 757 761 765 770 769 771 777 779 780 785 786 788 791 793 793 793 793 794 795 795 794 793 792 792
681 679 674 672 669 665 650 650 665 674 690 709 716 725 729 740 746 753 759 760 764 767 769 772 773 777 781 786 789 791 793 794 796 796 796 797 797 798 799 799 799 799 798 796
700 690 681 676 683 671 664 668 675 685 702 717 726 733 740 749 756 759 763 765 765 768 771 776 780 784 790 793 795 796 798 799 799 799 800 801 801 803 805 805 805 805 803 802
726 715 699 691 691 683 682 685 691 704 716 728 737 745 750 753 760 761 764 767 770 773 779 784 787 790 795 797 798 800 801 802 802 803 803 804 805 807 809 810 809 809 809 807
735 724 712 711 706 699 705 703 707 714 726 735 740 756 763 761 763 769 768 771 776 781 786 790 793 796 798 800 800 802 805 806 806 807 808 808 809 811 813 812 813 813 812 810